sat.trackr.live / text

‹ back to catalog

2023-072G

NORAD 56749 · 2023-072G

PAYLOAD ACTIVE UNKNOWN

§ Identity

Operator
Country
SKOR
Launch date
2023-05-25
Launch site
NSC
Launch vehicle
Mass (kg)
RCS (m²)

External: N2YO · Heavens-Above · Gunter

§ Orbital elements

Epoch: 2026-09-21T22:55:52.925088Z

Period
92.54 min
Inclination
97.4779°
Eccentricity
0.0002810
Mean motion
15.56030978 rev/d
Perigee alt
397.3 km
Apogee alt
401.1 km
Semi-major
6,777.3 km
B*
4.0885e-4
RAAN
116.9975°
Arg perigee
22.3602°
Mean anomaly
337.7774°
Rev number
18,548

§ Raw data

2023-072G1 56749U 23072G   26264.95547367  .00028423  00000+0  40885-3 0  99972 56749  97.4779 116.9975 0002810  22.3602 337.7774 15.56030978185488

JSON: /api/v1/satellites/56749 · /tle

For live sub-satellite position, see the globe view (requires WebGL).

§ Visibility from observer

Set your observer location to see the next 7 days of passes ≥ 10°. The values pass through the URL so the page stays shareable.

No JS? Fill the form by hand. The geolocation button needs JavaScript.

§ Radio — SatNOGS DB

ModeDescriptionDownlinkUplink
MSK AX.100 Mode 5 Mode U - MSK4k8 435.450 MHz

1 transmitter · refreshed weekly from db.satnogs.org